FW0646 Pawleys Island SC US current weather conditions

sailwx.info

Wind from 180 at 0 knots

Air temperature 26.1° C
Dewpoint 26.1° C

Last reported at 2020-Sep-25 13:05 UTC.
Time now 2020-Sep-25 13:48 UTC

Location: N 33°29' W 079°05'.
View on Google Maps.

See reports from other nearby stations

  
Tides and Currents Weather Stations Pressure Air Temp Water Temp Dewpoint Dewpoint Depression Visibility Wind Speed Wind Dir Waves Ship Positions
date/time (UTC)wind fromknots sea level pressurealtimeterstation pressurevisibilityair tempwater tempwave heightnotes
2020-Sep-25 13:05 180 0 26.1
2020-Sep-25 12:55 180 1 26.1
2020-Sep-25 12:46 180 1 26.1
2020-Sep-25 12:36 180 2 26.1
2020-Sep-25 12:26 180 26.1
2020-Sep-25 12:17 181 1 26.1
2020-Sep-25 12:07 181 3 26.1
2020-Sep-25 11:58 183 2 26.1
2020-Sep-25 11:49 181 3 26.1
2020-Sep-25 11:39 189 2 26.1
2020-Sep-25 11:30 192 1 25.6
2020-Sep-25 11:20 180 3 26.1
2020-Sep-25 11:10 187 3 26.1
2020-Sep-25 11:01 180 3 26.1
2020-Sep-25 10:51 181 3 26.1
2020-Sep-25 10:42 188 4 26.1
2020-Sep-25 10:32 180 4 26.1
2020-Sep-25 10:22 188 4 25.6
2020-Sep-25 10:13 184 3 26.1
2020-Sep-25 10:04 187 3 26.1
2020-Sep-25 09:54 186 3 26.1
2020-Sep-25 09:44 183 4 26.1
2020-Sep-25 09:35 193 4 26.1
2020-Sep-25 09:26 180 2 26.1
2020-Sep-25 09:16 180 3 26.1
2020-Sep-25 09:06 182 2 25.6
2020-Sep-25 08:57 180 1 25.6
2020-Sep-25 08:47 180 2 26.1
2020-Sep-25 08:37 181 1 26.1
2020-Sep-25 08:28 192 0 26.1
2020-Sep-25 08:18 204 0 25.0
2020-Sep-25 08:09 193 25.6
2020-Sep-25 08:00 185 0 25.6
2020-Sep-25 07:50 187 0 26.1
2020-Sep-25 07:41 180 1 26.1
2020-Sep-25 07:32 189 2 26.1
2020-Sep-25 07:22 185 1 25.6
2020-Sep-25 07:13 185 0 25.6
2020-Sep-25 07:03 180 0 25.6
2020-Sep-25 06:53 186 0 25.6
2020-Sep-25 06:44 198 25.6
2020-Sep-25 06:34 185 1 25.0
2020-Sep-25 06:25 181 3 25.6
2020-Sep-25 06:15 180 4 25.0
2020-Sep-25 06:05 202 1 25.6
2020-Sep-25 05:56 183 2 25.0
2020-Sep-25 05:47 184 2 25.6
2020-Sep-25 05:37 196 2 25.6
2020-Sep-25 05:28 183 1 25.6
2020-Sep-25 05:19 184 2 25.6
2020-Sep-25 05:09 185 3 25.6
2020-Sep-25 05:00 185 2 25.6
2020-Sep-25 04:51 180 4 25.6
2020-Sep-25 04:41 180 1 25.0
2020-Sep-25 04:32 180 5 25.0
2020-Sep-25 04:12 185 2 25.6
2020-Sep-25 04:02 180 2 25.6
2020-Sep-25 03:52 180 2 25.0
2020-Sep-25 03:42 183 4 25.0
2020-Sep-25 03:32 180 3 25.6
2020-Sep-25 03:22 180 3 26.1
2020-Sep-25 03:13 180 6 26.1
2020-Sep-25 03:03 181 4 26.1
2020-Sep-25 02:54 181 4 26.1
2020-Sep-25 02:44 181 3 26.1
2020-Sep-25 02:35 181 4 25.0
2020-Sep-25 02:26 146 2 25.0
2020-Sep-25 02:16 143 3 25.0
2020-Sep-25 02:07 167 0 25.6
2020-Sep-25 01:57 201 25.6
2020-Sep-25 01:48 155 1 25.6
2020-Sep-25 01:39 163 0 25.0
2020-Sep-25 01:30 174 25.0
2020-Sep-25 01:20 151 0 25.0
2020-Sep-25 01:10 333 25.0
2020-Sep-25 01:00 242 25.0
2020-Sep-25 00:50 133 25.0
2020-Sep-25 00:40 130 2 24.4
2020-Sep-25 00:30 159 0 25.0
2020-Sep-25 00:21 147 2 24.4
2020-Sep-25 00:11 131 4 25.0
2020-Sep-25 00:01 118 4 25.0
2020-Sep-24 23:52 119 4 25.0
2020-Sep-24 23:43 093 4 24.4
2020-Sep-24 23:34 115 4 25.0
2020-Sep-24 23:24 102 4 25.0
2020-Sep-24 23:14 125 3 25.0
2020-Sep-24 23:05 112 3 25.0
2020-Sep-24 22:56 099 4 25.0
2020-Sep-24 22:47 103 4 24.4
2020-Sep-24 22:37 097 4 24.4
2020-Sep-24 22:27 093 4 25.0
2020-Sep-24 22:18 108 3 25.0
2020-Sep-24 22:08 106 3 25.0
2020-Sep-24 21:58 109 4 25.0
2020-Sep-24 21:48 101 5 24.4
2020-Sep-24 21:38 111 5 23.9
2020-Sep-24 21:28 097 4 23.9
2020-Sep-24 21:19 108 4 24.4
2020-Sep-24 21:10 126 3 23.9
2020-Sep-24 21:00 112 4 23.9
2020-Sep-24 20:51 144 1 24.4
2020-Sep-24 20:41 109 3 23.9
2020-Sep-24 20:32 115 5 24.4
2020-Sep-24 20:22 112 5 24.4
2020-Sep-24 20:13 118 3 24.4
2020-Sep-24 20:03 091 5 24.4
2020-Sep-24 19:53 101 5 24.4
2020-Sep-24 19:43 105 5 24.4
2020-Sep-24 19:33 115 6 23.9
2020-Sep-24 19:24 134 4 24.4
2020-Sep-24 19:14 097 5 24.4
2020-Sep-24 19:05 112 5 24.4
2020-Sep-24 18:55 127 5 24.4
2020-Sep-24 18:46 125 5 24.4
2020-Sep-24 18:36 138 2 24.4
2020-Sep-24 18:27 115 5 24.4
2020-Sep-24 18:17 136 4 25.0
2020-Sep-24 18:08 131 3 24.4
2020-Sep-24 17:58 142 3 24.4
2020-Sep-24 17:49 132 4 25.0
2020-Sep-24 17:39 170 1 26.1
2020-Sep-24 17:29 295 25.0
2020-Sep-24 17:19 156 1 25.0
2020-Sep-24 16:59 148 2 27.8
2020-Sep-24 16:50 248 27.2
2020-Sep-24 16:40 163 0 26.1
2020-Sep-24 16:30 067 26.1
2020-Sep-24 16:20 038 25.6
2020-Sep-24 16:11 128 0 25.6
2020-Sep-24 16:01 240 0 24.4
2020-Sep-24 15:51 145 2 23.3
2020-Sep-24 15:41 146 2 23.9
2020-Sep-24 15:31 152 1 23.9
2020-Sep-24 15:22 126 3 25.0
2020-Sep-24 15:12 180 23.9
2020-Sep-24 15:03 157 2 23.9
2020-Sep-24 14:53 125 0 23.9
2020-Sep-24 14:43 135 2 23.9
2020-Sep-24 14:33 052 26.1
2020-Sep-24 14:24 330 25.6
2020-Sep-24 14:14 180 23.9
2020-Sep-24 14:05 180 23.9
2020-Sep-24 13:55 180 23.3
2020-Sep-24 13:46 180 22.8
2020-Sep-24 13:36 180 23.3
2020-Sep-24 13:27 210 22.8
2020-Sep-24 13:08 180 22.2
2020-Sep-24 12:58 180 21.7
2020-Sep-24 12:48 180 21.7
2020-Sep-24 12:38 180 21.1
2020-Sep-24 12:29 180 20.0
2020-Sep-24 12:19 180 20.0
2020-Sep-24 12:10 180 20.0
2020-Sep-24 12:01 180 19.4
2020-Sep-24 11:51 180 20.0
2020-Sep-24 11:42 180 20.0
2020-Sep-24 11:33 180 20.0
2020-Sep-24 11:23 180 18.9
2020-Sep-24 11:14 180 19.4
2020-Sep-24 11:05 180 18.9
2020-Sep-24 10:55 180 18.9
2020-Sep-24 10:46 180 18.9
2020-Sep-24 10:36 180 1 20.0
2020-Sep-24 10:27 180 19.4
2020-Sep-24 10:17 180 18.9
2020-Sep-24 10:07 180 19.4
2020-Sep-24 09:58 180 19.4
2020-Sep-24 09:49 180 19.4
2020-Sep-24 09:39 180 18.9
2020-Sep-24 09:29 180 19.4
2020-Sep-24 09:19 180 18.9
2020-Sep-24 09:09 180 18.9
2020-Sep-24 09:00 180 18.3
2020-Sep-24 08:51 180 18.9
2020-Sep-24 08:41 180 18.9
2020-Sep-24 08:32 180 18.9
2020-Sep-24 08:22 180 18.3
2020-Sep-24 08:13 180 17.8
2020-Sep-24 08:04 180 18.3
2020-Sep-24 07:54 180 17.8
2020-Sep-24 07:44 180 18.3
2020-Sep-24 07:34 180 18.3
2020-Sep-24 07:25 180 17.8
2020-Sep-24 07:16 180 18.3
2020-Sep-24 07:06 180 18.3
2020-Sep-24 06:56 180 18.3
2020-Sep-24 06:46 180 17.8
2020-Sep-24 06:37 180 18.3
2020-Sep-24 06:28 180 17.8
2020-Sep-24 06:18 180 17.8
2020-Sep-24 06:08 180 17.2
2020-Sep-24 05:59 180 17.8
2020-Sep-24 05:40 180 17.8
2020-Sep-24 05:30 180 17.2
2020-Sep-24 05:20 180 17.2
2020-Sep-24 05:11 180 17.2
2020-Sep-24 05:01 180 17.2
2020-Sep-24 04:52 180 17.2
2020-Sep-24 04:43 180 17.8
2020-Sep-24 04:33 180 17.8
2020-Sep-24 04:24 180 17.2
2020-Sep-24 04:15 180 17.8
2020-Sep-24 04:06 180 17.2
2020-Sep-24 03:56 180 17.2
2020-Sep-24 03:47 180 17.2
2020-Sep-24 03:37 180 17.2
2020-Sep-24 03:27 180 17.2
2020-Sep-24 03:17 180 17.8
2020-Sep-24 03:07 180 17.8
2020-Sep-24 02:58 180 18.9
2020-Sep-24 02:48 180 18.9
2020-Sep-24 02:38 180 18.3
2020-Sep-24 02:29 180 18.9
2020-Sep-24 02:20 180 18.9
2020-Sep-24 02:11 180 18.9
2020-Sep-24 02:01 180 18.9
2020-Sep-24 01:51 180 19.4
2020-Sep-24 01:41 180 18.9
2020-Sep-24 01:32 180 18.9
2020-Sep-24 01:22 180 19.4
2020-Sep-24 01:12 180 19.4
2020-Sep-24 01:02 180 19.4
2020-Sep-24 00:53 180 19.4
2020-Sep-24 00:44 180 20.0
2020-Sep-24 00:34 180 19.4
2020-Sep-24 00:25 180 20.0
2020-Sep-24 00:16 180 19.4
2020-Sep-24 00:07 180 20.0
2020-Sep-23 23:58 299 20.0
2020-Sep-23 23:48 299 20.0
2020-Sep-23 23:39 244 20.6
2020-Sep-23 23:29 241 20.6
2020-Sep-23 23:20 165 2 20.6
2020-Sep-23 23:10 202 1 21.1
2020-Sep-23 23:00 191 0 21.1
2020-Sep-23 22:50 210 0 21.1
2020-Sep-23 22:40 217 1 20.6
2020-Sep-23 22:30 180 1 21.7
2020-Sep-23 22:21 180 2 21.1
2020-Sep-23 22:11 214 1 21.1
2020-Sep-23 22:02 189 1 21.1
2020-Sep-23 21:53 201 2 21.7
2020-Sep-23 21:43 180 2 21.1
2020-Sep-23 21:33 191 1 21.1
2020-Sep-23 21:24 181 2 21.1
2020-Sep-23 21:14 181 2 21.7
2020-Sep-23 21:05 180 3 20.6
2020-Sep-23 20:55 180 1 20.6
2020-Sep-23 20:45 152 4 20.6
2020-Sep-23 20:36 180 2 21.7
2020-Sep-23 20:26 192 1 21.7
2020-Sep-23 20:16 185 2 21.7
2020-Sep-23 20:07 198 1 21.7
2020-Sep-23 19:57 106 3 20.6
2020-Sep-23 19:48 107 4 20.6
2020-Sep-23 19:38 100 5 20.6
2020-Sep-23 19:28 106 5 20.6
2020-Sep-23 19:18 103 4 20.6
2020-Sep-23 19:09 097 3 20.6
2020-Sep-23 18:59 148 2 21.1
2020-Sep-23 18:49 137 3 21.7
2020-Sep-23 18:39 114 3 21.1
2020-Sep-23 18:29 114 4 22.2
2020-Sep-23 18:20 147 1 20.6
2020-Sep-23 18:10 072 3 20.0
2020-Sep-23 18:01 107 5 20.6
2020-Sep-23 17:52 090 3 21.1
2020-Sep-23 17:42 163 1 21.1
2020-Sep-23 17:32 102 2 21.1
2020-Sep-23 17:22 136 2 21.7
2020-Sep-23 17:13 166 3 21.7
2020-Sep-23 17:04 145 1 22.8
2020-Sep-23 16:54 135 0 22.2
2020-Sep-23 16:44 290 22.2
2020-Sep-23 16:35 242 1 22.2
2020-Sep-23 16:25 323 22.8
2020-Sep-23 16:15 310 22.8
2020-Sep-23 16:05 292 21.7
2020-Sep-23 15:56 313 21.1
2020-Sep-23 15:46 239 20.6
2020-Sep-23 15:37 297 0 20.6
2020-Sep-23 15:27 320 20.6
2020-Sep-23 15:18 312 20.6
2020-Sep-23 15:08 315 20.6
2020-Sep-23 14:58 319 20.6
2020-Sep-23 14:48 180 21.1
2020-Sep-23 14:38 180 20.6
2020-Sep-23 14:28 180 20.0
2020-Sep-23 14:18 180 19.4
2020-Sep-23 14:09 180 0 19.4
2020-Sep-23 13:59 180 1 18.9
2020-Sep-23 13:50 180 18.9
2020-Sep-23 13:40 180 18.9
2020-Sep-23 13:31 183 0 18.9
2020-Sep-23 13:21 180 18.9
2020-Sep-23 13:11 180 18.3
2020-Sep-23 13:01 180 17.8